This is the latest recevied weather packets stored in our database for station/object OE5MIL-13. If no packets are shown the sender has not sent any weather packets the latest 1 day(s).
| Time | Temp. | Humidity | Pressure | Rain* | Wind** | Luminosity | Snow |
|---|---|---|---|---|---|---|---|
| 1778000605 | 9.44° C | 100% | 0 hPa | 0 mm | 0.45 m/s, 115° | - | - |
| 1777999404 | 8.89° C | 100% | 0 hPa | 0 mm | 1.79 m/s, 248° | - | - |
| 1777998203 | 10° C | 100% | 0 hPa | 0 mm | 1.79 m/s, 217° | - | - |
| 1777997002 | 10.56° C | 100% | 0 hPa | 0 mm | 1.79 m/s, 85° | - | - |
| 1777995801 | 12.78° C | 100% | 0 hPa | 0 mm | 4.02 m/s, 164° | - | - |
| 1777994600 | 14.44° C | 100% | 0 hPa | 0 mm | 8.05 m/s, 160° | - | - |
| 1777993399 | 14.44° C | 100% | 0 hPa | 0 mm | 1.79 m/s, 57° | - | - |
| 1777992197 | 17.22° C | 100% | 0 hPa | 0 mm | 2.68 m/s, 147° | - | - |
| 1777990996 | 15° C | 100% | 0 hPa | 0 mm | 1.79 m/s, 95° | - | - |
| 1777989795 | 18.89° C | 100% | 0 hPa | 0 mm | 2.24 m/s, 156° | - | - |
| 1777988594 | 15.56° C | 100% | 0 hPa | 0 mm | 0.45 m/s, 217° | - | - |
| 1777987393 | 16.67° C | 100% | 0 hPa | 0 mm | 1.79 m/s, 174° | - | - |
| 1777986192 | 17.78° C | 100% | 0 hPa | 0 mm | 1.79 m/s, 150° | - | - |
| 1777984990 | 17.78° C | 100% | 0 hPa | 0 mm | 3.13 m/s, 157° | - | - |
| 1777983789 | 17.78° C | 100% | 0 hPa | 0 mm | 1.34 m/s, 189° | - | - |
| 1777982588 | 17.78° C | 100% | 0 hPa | 0 mm | 0 m/s | - | - |
| 1777981387 | 16.11° C | 100% | 0 hPa | 0 mm | 3.58 m/s, 164° | - | - |
| 1777980186 | 16.11° C | 100% | 0 hPa | 0 mm | 0.89 m/s, 154° | - | - |
| 1777979029 | 15.56° C | 100% | 0 hPa | 0 mm | 2.24 m/s, 185° | - | - |
| 1777978985 | 15.56° C | 100% | 0 hPa | 0 mm | 2.24 m/s, 185° | - | - |
| 1777977784 | 14.44° C | 100% | 0 hPa | 0 mm | 2.68 m/s, 208° | - | - |
| 1777976683 | 12.78° C | 100% | 0 hPa | 0 mm | 2.24 m/s, 163° | - | - |
| 1777976582 | 12.78° C | 100% | 0 hPa | 0 mm | 2.24 m/s, 163° | - | - |
| 1777975381 | 13.89° C | 100% | 0 hPa | 0 mm | 0 m/s | - | - |
| 1777974180 | 13.89° C | 100% | 0 hPa | 0 mm | 0 m/s | - | - |
* Rain latest hour (hover to see other rain measurements)
** Current wind speed in m/s (hover to see current wind gust speed)